Tracking 30703 objects as of 12-Jun-2025
HD Live streaming from Space Station
objects crossing your sky now

OBJECT D

Track OBJECT D now!
10-day predictions


NORAD ID: 61241
Int'l Code: 2024-174D
Perigee: 493.8 km
Apogee: 515.4 km
Inclination: 97.4 °
Period: 94.6 minutes
Semi major axis: 6875 km
RCS: Unknown
Launch date: September 24, 2024
Source: People's Republic of China (PRC)
Launch site: Jiuquan Satellite Launch Center, China (JSC)
Your satellite tracking list
Your tracking list is empty




NASA's NSSDC Master Catalog

Two Line Element Set (TLE):
1 61241U 24174D   25163.57042076  .00006336  00000-0  27325-3 0  9990
2 61241  97.4444 171.4632 0015728  93.5553 266.7483 15.22787486 39542
Source of the keplerian elements: AFSPC